Tracking 29892 objects as of 21-Nov-2024
HD Live streaming from Space Station
objects crossing your sky now

DMSP 5D-2 F13 DEB

Track DMSP 5D-2 F13 DEB now!
10-day predictions


NORAD ID: 40448
Int'l Code: 1995-015BA
Perigee: 805.3 km
Apogee: 861.4 km
Inclination: 99.0 °
Period: 101.4 minutes
Semi major axis: 7204 km
RCS: Unknown
Launch date: March 24, 1995
Source: United States (US)
Launch site: AIR FORCE WESTERN TEST RANGE (AFWTR)

Note: This is SATELLITE DEBRIS
Your satellite tracking list
Your tracking list is empty




NASA's NSSDC Master Catalog

Two Line Element Set (TLE):
1 40448U 95015BA  24322.69215255  .00006219  00000-0  29353-2 0  9990
2 40448  98.9563 307.4144 0038942 266.9056  92.7663 14.19748650499500
Source of the keplerian elements: AFSPC